VLG2CM GCLP-LEST

Flight info

Callsign VLG2CM
Flight time 2h 15m
Altitude 36000
Route VASTO/N0432F380 DCT NIDEB DCT TIGGI DCT ORSOS DCT TERVA DCT ASMOV DCT AGADO
Aircraft A21N/M-SDE2E3FGHIRWXY/LB1

Departure

Time 2026-04-26 19:19
Airport Gran Canaria Airport (GCLP)

Arrival

Time 2026-04-26 21:34
Airport Santiago-Rosalía de Castro Airport (LEST)
Time Latitude Longitude Altitude Speed Heading
2026-04-26 18:51 27.92918 -15.39216 87 ft 0 kts 291°
2026-04-26 19:09 27.92915 -15.39209 90 ft 2 kts 287°
2026-04-26 19:10 27.92911 -15.39190 88 ft 2 kts 16°
2026-04-26 19:10 27.92900 -15.39197 90 ft 2 kts 36°
2026-04-26 19:10 27.92895 -15.39176 87 ft 0 kts 118°
2026-04-26 19:11 27.92894 -15.39174 87 ft 1 kts 117°
2026-04-26 19:11 27.92889 -15.39163 88 ft 3 kts 117°
2026-04-26 19:11 27.92879 -15.39129 89 ft 7 kts 100°
2026-04-26 19:12 27.92857 -15.39061 88 ft 12 kts 110°
2026-04-26 19:12 27.92804 -15.39021 85 ft 6 kts 181°
2026-04-26 19:12 27.92779 -15.39036 89 ft 5 kts 208°
2026-04-26 19:12 27.92748 -15.39052 89 ft 6 kts 201°
2026-04-26 19:13 27.92668 -15.39088 92 ft 21 kts 201°
2026-04-26 19:13 27.92493 -15.39164 94 ft 25 kts 202°
2026-04-26 19:13 27.92308 -15.39250 101 ft 31 kts 200°
2026-04-26 19:13 27.92088 -15.39310 94 ft 36 kts 181°
2026-04-26 19:14 27.91886 -15.39210 85 ft 32 kts 104°
2026-04-26 19:14 27.91857 -15.39107 82 ft 0 kts 111°
2026-04-26 19:18 27.91852 -15.39043 72 ft 23 kts 77°
2026-04-26 19:18 27.92094 -15.38913 63 ft 83 kts 21°
2026-04-26 19:18 27.92898 -15.38562 48 ft 160 kts 21°
2026-04-26 19:19 27.94057 -15.38045 452 ft 191 kts 19°
2026-04-26 19:19 27.95368 -15.37437 1173 ft 216 kts 20°
2026-04-26 19:19 27.96813 -15.36785 2055 ft 231 kts 18°
2026-04-26 19:19 27.98377 -15.36174 2908 ft 244 kts 17°
2026-04-26 19:20 27.99996 -15.35554 3997 ft 247 kts 17°
2026-04-26 19:20 28.01079 -15.35136 4721 ft 250 kts 17°
2026-04-26 19:20 28.03313 -15.34259 6069 ft 259 kts 19°
2026-04-26 19:20 28.05049 -15.33562 6929 ft 270 kts 20°
2026-04-26 19:21 28.06822 -15.32800 7873 ft 276 kts 21°
2026-04-26 19:21 28.08637 -15.31999 8771 ft 284 kts 20°
2026-04-26 19:21 28.10503 -15.31173 9689 ft 292 kts 20°
2026-04-26 19:21 28.12421 -15.30330 10471 ft 303 kts 20°
2026-04-26 19:22 28.14473 -15.29469 10847 ft 326 kts 16°
2026-04-26 19:22 28.16743 -15.28802 11279 ft 345 kts 13°
2026-04-26 19:22 28.19089 -15.28139 12089 ft 350 kts 13°
2026-04-26 19:22 28.21469 -15.27462 12954 ft 355 kts 13°
2026-04-26 19:23 28.23845 -15.26783 13797 ft 359 kts 13°
2026-04-26 19:23 28.26317 -15.26077 14562 ft 364 kts 13°
2026-04-26 19:23 28.28753 -15.25381 15306 ft 368 kts 13°
2026-04-26 19:23 28.31234 -15.24608 16046 ft 372 kts 18°
2026-04-26 19:24 28.33638 -15.23472 16773 ft 377 kts 26°
2026-04-26 19:24 28.35892 -15.21966 17508 ft 381 kts 33°
2026-04-26 19:24 28.40375 -15.18589 18847 ft 390 kts 33°
2026-04-26 19:25 28.42652 -15.16887 19469 ft 394 kts 33°
2026-04-26 19:25 28.44203 -15.15729 19861 ft 397 kts 33°
2026-04-26 19:25 28.47279 -15.13432 20678 ft 402 kts 34°
2026-04-26 19:25 28.49628 -15.11677 21258 ft 406 kts 34°
2026-04-26 19:26 28.52003 -15.09900 21846 ft 411 kts 34°
2026-04-26 19:26 28.54395 -15.08108 22427 ft 414 kts 34°
2026-04-26 19:26 28.56820 -15.06291 22999 ft 419 kts 34°
2026-04-26 19:26 28.59263 -15.04460 23584 ft 423 kts 34°
2026-04-26 19:27 28.61727 -15.02611 24064 ft 426 kts 34°
2026-04-26 19:27 28.64206 -15.00748 24583 ft 428 kts 34°
2026-04-26 19:27 28.66698 -14.98874 25065 ft 431 kts 34°
2026-04-26 19:27 28.69202 -14.96991 25544 ft 434 kts 34°
2026-04-26 19:28 28.71729 -14.95090 26004 ft 436 kts 34°
2026-04-26 19:28 28.74268 -14.93179 26459 ft 439 kts 34°
2026-04-26 19:28 28.76826 -14.91251 26896 ft 442 kts 34°
2026-04-26 19:28 28.79394 -14.89316 27339 ft 444 kts 34°
2026-04-26 19:29 28.81975 -14.87369 27755 ft 447 kts 34°
2026-04-26 19:29 28.84577 -14.85405 28168 ft 449 kts 34°
2026-04-26 19:29 28.87182 -14.83438 28565 ft 451 kts 34°
2026-04-26 19:29 28.89813 -14.81450 28936 ft 454 kts 34°
2026-04-26 19:30 28.92454 -14.79452 29304 ft 456 kts 34°
2026-04-26 19:30 28.95102 -14.77448 29651 ft 459 kts 34°
2026-04-26 19:30 28.97770 -14.75429 30001 ft 461 kts 34°
2026-04-26 19:30 28.99546 -14.74084 30198 ft 463 kts 34°
2026-04-26 19:31 29.03148 -14.71355 30538 ft 468 kts 34°
2026-04-26 19:31 29.05873 -14.69289 30787 ft 471 kts 34°
2026-04-26 19:31 29.08613 -14.67210 31052 ft 474 kts 34°
2026-04-26 19:31 29.11376 -14.65111 31336 ft 477 kts 34°
2026-04-26 19:32 29.14134 -14.63016 31731 ft 476 kts 34°
2026-04-26 19:32 29.16892 -14.60919 32116 ft 476 kts 34°
2026-04-26 19:32 29.19655 -14.58817 32472 ft 476 kts 34°
2026-04-26 19:32 29.22414 -14.56717 32832 ft 476 kts 34°
2026-04-26 19:33 29.25172 -14.54616 33196 ft 476 kts 34°
2026-04-26 19:33 29.27927 -14.52515 33539 ft 476 kts 34°
2026-04-26 19:33 29.30685 -14.50411 33894 ft 476 kts 34°
2026-04-26 19:33 29.33446 -14.48304 34203 ft 476 kts 34°
2026-04-26 19:34 29.36195 -14.46204 34502 ft 476 kts 34°
2026-04-26 19:34 29.38953 -14.44096 34772 ft 475 kts 34°
2026-04-26 19:34 29.41664 -14.42021 35034 ft 475 kts 34°
2026-04-26 19:34 29.44416 -14.39915 35301 ft 475 kts 34°
2026-04-26 19:35 29.47164 -14.37810 35561 ft 475 kts 33°
2026-04-26 19:35 29.49913 -14.35704 35802 ft 475 kts 33°
2026-04-26 19:35 29.52661 -14.33596 36033 ft 476 kts 33°
2026-04-26 19:35 29.55412 -14.31485 36025 ft 475 kts 33°
2026-04-26 19:36 29.60005 -14.27958 36019 ft 474 kts 33°
2026-04-26 19:36 29.66411 -14.23032 36021 ft 474 kts 33°
2026-04-26 19:37 29.71894 -14.18809 36021 ft 474 kts 33°
2026-04-26 19:37 29.77372 -14.14585 36020 ft 474 kts 33°
2026-04-26 19:38 29.82851 -14.10353 36017 ft 474 kts 34°
2026-04-26 19:38 29.88330 -14.06116 36013 ft 474 kts 34°
2026-04-26 19:39 29.93802 -14.01879 36014 ft 474 kts 34°
2026-04-26 19:39 29.99280 -13.97632 36017 ft 474 kts 34°
2026-04-26 19:40 30.04754 -13.93382 36015 ft 474 kts 34°
2026-04-26 19:40 30.10230 -13.89125 36018 ft 474 kts 34°
2026-04-26 19:41 30.15700 -13.84866 36012 ft 474 kts 34°
2026-04-26 19:41 30.20249 -13.81320 36012 ft 474 kts 34°
2026-04-26 19:42 30.26648 -13.76326 36013 ft 475 kts 34°
2026-04-26 19:42 30.32081 -13.72078 36011 ft 475 kts 34°
2026-04-26 19:43 30.37550 -13.67797 36010 ft 475 kts 34°
2026-04-26 19:43 30.43018 -13.63510 36008 ft 475 kts 34°
2026-04-26 19:44 30.48490 -13.59215 36008 ft 475 kts 34°
2026-04-26 19:44 30.54147 -13.55271 36009 ft 475 kts 27°
2026-04-26 19:45 30.59964 -13.51644 36008 ft 475 kts 28°
2026-04-26 19:45 30.65775 -13.48001 36003 ft 475 kts 28°
2026-04-26 19:46 30.71586 -13.44354 36008 ft 475 kts 28°
2026-04-26 19:46 30.77395 -13.40703 36007 ft 475 kts 28°
2026-04-26 19:47 30.81287 -13.38253 36002 ft 475 kts 28°
2026-04-26 19:47 30.89294 -13.34106 36002 ft 474 kts 20°
2026-04-26 19:48 30.95448 -13.31374 36007 ft 473 kts 20°
2026-04-26 19:48 31.01601 -13.28631 36007 ft 473 kts 20°
2026-04-26 19:49 31.07754 -13.25880 36010 ft 473 kts 20°
2026-04-26 19:49 31.13899 -13.23129 36009 ft 473 kts 20°
2026-04-26 19:50 31.20038 -13.20376 36007 ft 473 kts 20°
2026-04-26 19:50 31.26135 -13.17638 36008 ft 473 kts 20°
2026-04-26 19:51 31.32182 -13.14917 36009 ft 473 kts 20°
2026-04-26 19:51 31.37326 -13.12599 36005 ft 473 kts 20°
2026-04-26 19:52 31.44458 -13.09383 36005 ft 472 kts 20°
2026-04-26 19:52 31.50588 -13.06614 36005 ft 472 kts 20°
2026-04-26 19:53 31.56712 -13.03844 36006 ft 472 kts 20°
2026-04-26 19:53 31.61846 -13.01518 36005 ft 472 kts 20°
2026-04-26 19:54 31.67925 -12.98761 35993 ft 471 kts 20°
2026-04-26 19:54 31.74035 -12.95986 36008 ft 471 kts 20°
2026-04-26 19:55 31.80148 -12.93205 35998 ft 471 kts 20°
2026-04-26 19:55 31.86260 -12.90421 35991 ft 471 kts 20°
2026-04-26 19:56 31.92366 -12.87636 35994 ft 471 kts 20°
2026-04-26 19:56 31.98480 -12.84844 36005 ft 471 kts 20°
2026-04-26 19:57 32.04584 -12.82051 36012 ft 471 kts 20°
2026-04-26 19:57 32.10689 -12.79255 36018 ft 471 kts 20°
2026-04-26 19:58 32.16790 -12.76456 36019 ft 470 kts 20°
2026-04-26 19:58 32.22890 -12.73654 36022 ft 470 kts 20°
2026-04-26 19:59 32.28991 -12.70847 36016 ft 470 kts 20°
2026-04-26 19:59 32.35091 -12.68036 36015 ft 470 kts 20°
2026-04-26 20:00 32.41184 -12.65225 36020 ft 470 kts 20°
2026-04-26 20:00 32.47282 -12.62407 36012 ft 470 kts 20°
2026-04-26 20:01 32.53378 -12.59587 36009 ft 470 kts 20°
2026-04-26 20:01 32.59477 -12.56760 36012 ft 471 kts 20°
2026-04-26 20:02 32.65570 -12.53932 36012 ft 471 kts 20°
2026-04-26 20:02 32.70643 -12.51574 36023 ft 471 kts 20°
2026-04-26 20:03 32.77734 -12.48274 36022 ft 471 kts 20°
2026-04-26 20:03 32.83836 -12.45430 36034 ft 471 kts 20°
2026-04-26 20:04 32.89938 -12.42581 36033 ft 471 kts 20°
2026-04-26 20:04 32.96036 -12.39730 36032 ft 471 kts 20°
2026-04-26 20:05 33.02135 -12.36874 36032 ft 471 kts 20°
2026-04-26 20:05 33.08227 -12.34017 36022 ft 470 kts 21°
2026-04-26 20:06 33.14316 -12.31158 36016 ft 470 kts 21°
2026-04-26 20:06 33.20397 -12.28299 36017 ft 469 kts 21°
2026-04-26 20:07 33.26471 -12.25438 36025 ft 469 kts 21°
2026-04-26 20:07 33.32537 -12.22576 36020 ft 469 kts 21°
2026-04-26 20:08 33.38594 -12.19715 36023 ft 468 kts 21°
2026-04-26 20:08 33.44656 -12.16848 36018 ft 468 kts 21°
2026-04-26 20:09 33.50708 -12.13981 36024 ft 468 kts 21°
2026-04-26 20:09 33.56757 -12.11111 36028 ft 468 kts 21°
2026-04-26 20:10 33.62809 -12.08235 36029 ft 468 kts 21°
2026-04-26 20:10 33.68859 -12.05355 36031 ft 468 kts 22°
2026-04-26 20:11 33.74914 -12.02468 36025 ft 468 kts 22°
2026-04-26 20:12 33.83986 -11.98136 36044 ft 468 kts 22°
2026-04-26 20:12 33.90041 -11.95238 36045 ft 468 kts 22°
2026-04-26 20:13 33.96096 -11.92336 36043 ft 468 kts 22°
2026-04-26 20:13 34.02147 -11.89430 36044 ft 468 kts 22°
2026-04-26 20:14 34.08198 -11.86521 36044 ft 468 kts 22°
2026-04-26 20:14 34.14242 -11.83611 36048 ft 468 kts 22°
2026-04-26 20:15 34.20280 -11.80700 36043 ft 467 kts 22°
2026-04-26 20:15 34.26318 -11.77783 36043 ft 467 kts 22°
2026-04-26 20:16 34.32343 -11.74867 36049 ft 466 kts 23°
2026-04-26 20:16 34.38371 -11.71946 36048 ft 466 kts 23°
2026-04-26 20:17 34.44382 -11.69028 36049 ft 465 kts 23°
2026-04-26 20:17 34.50389 -11.66108 36043 ft 465 kts 23°
2026-04-26 20:18 34.56380 -11.63191 36051 ft 464 kts 23°
2026-04-26 20:18 34.62381 -11.60265 36046 ft 464 kts 23°
2026-04-26 20:19 34.68371 -11.57339 36049 ft 464 kts 23°
2026-04-26 20:19 34.74356 -11.54412 36043 ft 463 kts 23°
2026-04-26 20:20 34.80341 -11.51480 36036 ft 463 kts 23°
2026-04-26 20:20 34.86318 -11.48547 36037 ft 463 kts 23°
2026-04-26 20:21 34.92301 -11.45607 36033 ft 464 kts 23°
2026-04-26 20:21 34.98285 -11.42662 36031 ft 464 kts 23°
2026-04-26 20:22 35.04269 -11.39713 36047 ft 464 kts 23°
2026-04-26 20:22 35.10252 -11.36758 36049 ft 464 kts 23°
2026-04-26 20:23 35.16236 -11.33800 36057 ft 464 kts 23°
2026-04-26 20:23 35.22227 -11.30833 36058 ft 464 kts 23°
2026-04-26 20:24 35.28212 -11.27863 36058 ft 464 kts 23°
2026-04-26 20:24 35.34193 -11.24892 36058 ft 464 kts 23°
2026-04-26 20:25 35.40178 -11.21913 36055 ft 464 kts 23°
2026-04-26 20:25 35.46161 -11.18931 36057 ft 464 kts 23°
2026-04-26 20:26 35.52144 -11.15942 36062 ft 464 kts 23°
2026-04-26 20:26 35.58124 -11.12951 36060 ft 464 kts 23°
2026-04-26 20:27 35.64102 -11.09955 36061 ft 464 kts 23°
2026-04-26 20:27 35.70078 -11.06957 36061 ft 464 kts 23°
2026-04-26 20:28 35.76065 -11.03949 36062 ft 464 kts 23°
2026-04-26 20:28 35.82041 -11.00942 36066 ft 464 kts 23°
2026-04-26 20:29 35.88027 -10.97927 36071 ft 464 kts 23°
2026-04-26 20:29 35.93987 -10.95012 36070 ft 465 kts 20°
2026-04-26 20:30 36.00214 -10.92872 36081 ft 465 kts 11°
2026-04-26 20:30 36.06531 -10.91221 36075 ft 464 kts 15°
2026-04-26 20:31 36.12792 -10.89241 36079 ft 464 kts 14°
2026-04-26 20:31 36.19048 -10.87264 36081 ft 464 kts 14°
2026-04-26 20:32 36.25308 -10.85288 36085 ft 464 kts 14°
2026-04-26 20:32 36.31555 -10.83314 36083 ft 464 kts 14°
2026-04-26 20:33 36.37813 -10.81332 36081 ft 463 kts 14°
2026-04-26 20:33 36.44055 -10.79350 36087 ft 463 kts 14°
2026-04-26 20:34 36.50300 -10.77364 36084 ft 463 kts 14°
2026-04-26 20:34 36.56544 -10.75375 36083 ft 463 kts 14°
2026-04-26 20:35 36.62780 -10.73385 36084 ft 463 kts 14°
2026-04-26 20:35 36.69014 -10.71393 36086 ft 463 kts 14°
2026-04-26 20:36 36.75252 -10.69395 36085 ft 462 kts 14°
2026-04-26 20:36 36.80469 -10.67723 36085 ft 462 kts 14°
2026-04-26 20:37 36.86696 -10.65723 36088 ft 462 kts 14°
2026-04-26 20:37 36.92886 -10.63732 36091 ft 462 kts 14°
2026-04-26 20:38 36.99112 -10.61726 36090 ft 462 kts 14°
2026-04-26 20:38 37.05339 -10.59715 36092 ft 462 kts 14°
2026-04-26 20:39 37.11571 -10.57700 36092 ft 462 kts 14°
2026-04-26 20:39 37.17797 -10.55684 36094 ft 462 kts 14°
2026-04-26 20:40 37.24026 -10.53664 36091 ft 462 kts 14°
2026-04-26 20:40 37.30253 -10.51640 36095 ft 462 kts 14°
2026-04-26 20:41 37.36475 -10.49615 36091 ft 462 kts 14°
2026-04-26 20:41 37.42704 -10.47584 36092 ft 462 kts 14°
2026-04-26 20:42 37.48922 -10.45553 36094 ft 462 kts 14°
2026-04-26 20:42 37.55196 -10.43500 36090 ft 462 kts 14°
2026-04-26 20:43 37.61414 -10.41462 36090 ft 462 kts 14°
2026-04-26 20:43 37.67641 -10.39418 36088 ft 462 kts 13°
2026-04-26 20:44 37.73864 -10.37371 36091 ft 462 kts 13°
2026-04-26 20:44 37.80084 -10.35322 36091 ft 462 kts 13°
2026-04-26 20:45 37.86261 -10.33283 36088 ft 462 kts 13°
2026-04-26 20:45 37.92524 -10.31213 36090 ft 462 kts 13°
2026-04-26 20:46 37.98698 -10.29168 36086 ft 462 kts 13°
2026-04-26 20:46 38.04960 -10.27091 36086 ft 462 kts 13°
2026-04-26 20:47 38.11175 -10.25025 36083 ft 462 kts 13°
2026-04-26 20:47 38.17381 -10.22959 36088 ft 461 kts 13°
2026-04-26 20:48 38.23591 -10.20887 36082 ft 461 kts 13°
2026-04-26 20:48 38.29797 -10.18813 36094 ft 461 kts 13°
2026-04-26 20:49 38.35965 -10.16752 36088 ft 461 kts 13°
2026-04-26 20:49 38.42166 -10.14673 36087 ft 461 kts 13°
2026-04-26 20:50 38.48359 -10.12593 36092 ft 461 kts 13°
2026-04-26 20:50 38.54559 -10.10509 36090 ft 460 kts 13°
2026-04-26 20:51 38.60747 -10.08423 36091 ft 460 kts 13°
2026-04-26 20:51 38.66936 -10.06333 36095 ft 460 kts 13°
2026-04-26 20:52 38.73119 -10.04242 36093 ft 459 kts 13°
2026-04-26 20:52 38.79294 -10.02148 36099 ft 459 kts 13°
2026-04-26 20:53 38.85459 -10.00054 36099 ft 458 kts 12°
2026-04-26 20:53 38.91617 -9.97961 36100 ft 458 kts 13°
2026-04-26 20:54 38.97773 -9.95864 36100 ft 457 kts 12°
2026-04-26 20:54 39.03917 -9.93767 36089 ft 456 kts 12°
2026-04-26 20:55 39.10092 -9.91655 36098 ft 456 kts 12°
2026-04-26 20:55 39.16175 -9.89571 36106 ft 455 kts 12°
2026-04-26 20:56 39.22294 -9.87472 36099 ft 455 kts 12°
2026-04-26 20:56 39.28409 -9.85369 36097 ft 455 kts 12°
2026-04-26 20:57 39.34520 -9.83264 36093 ft 454 kts 12°
2026-04-26 20:57 39.40627 -9.81158 36098 ft 454 kts 12°
2026-04-26 20:58 39.46736 -9.79047 36098 ft 454 kts 13°
2026-04-26 20:58 39.52839 -9.76933 36102 ft 454 kts 13°
2026-04-26 20:59 39.58945 -9.74815 36102 ft 454 kts 13°
2026-04-26 20:59 39.65051 -9.72692 36108 ft 454 kts 13°
2026-04-26 21:00 39.71162 -9.70564 36106 ft 455 kts 13°
2026-04-26 21:00 39.77275 -9.68432 36105 ft 455 kts 13°
2026-04-26 21:01 39.83383 -9.66297 36119 ft 455 kts 13°
2026-04-26 21:01 39.89498 -9.64157 36111 ft 455 kts 13°
2026-04-26 21:02 39.95619 -9.62011 36112 ft 455 kts 13°
2026-04-26 21:02 40.01730 -9.59864 36111 ft 456 kts 13°
2026-04-26 21:03 40.07860 -9.57705 36125 ft 456 kts 13°
2026-04-26 21:03 40.13981 -9.55547 36126 ft 456 kts 13°
2026-04-26 21:04 40.20105 -9.53384 36122 ft 456 kts 13°
2026-04-26 21:04 40.26223 -9.51218 36117 ft 456 kts 13°
2026-04-26 21:05 40.32343 -9.49047 36116 ft 456 kts 13°
2026-04-26 21:05 40.38469 -9.46870 36121 ft 456 kts 13°
2026-04-26 21:06 40.44574 -9.44696 36124 ft 455 kts 13°
2026-04-26 21:06 40.50695 -9.42513 36118 ft 455 kts 13°
2026-04-26 21:07 40.56801 -9.40330 36122 ft 455 kts 13°
2026-04-26 21:07 40.62911 -9.38142 36117 ft 455 kts 13°
2026-04-26 21:08 40.69011 -9.35953 36117 ft 455 kts 13°
2026-04-26 21:08 40.75121 -9.33757 36114 ft 455 kts 13°
2026-04-26 21:09 40.81223 -9.31559 36112 ft 455 kts 13°
2026-04-26 21:09 40.86471 -9.29665 36114 ft 455 kts 13°
2026-04-26 21:10 40.92573 -9.27460 36115 ft 455 kts 13°
2026-04-26 21:10 40.98680 -9.25250 36113 ft 455 kts 13°
2026-04-26 21:11 41.04229 -9.23237 36112 ft 455 kts 13°
2026-04-26 21:11 41.10324 -9.21021 35919 ft 452 kts 14°
2026-04-26 21:11 41.13326 -9.19929 35263 ft 454 kts 14°
2026-04-26 21:12 41.16382 -9.18817 34316 ft 460 kts 14°
2026-04-26 21:12 41.19498 -9.17682 33082 ft 467 kts 14°
2026-04-26 21:12 41.22655 -9.16529 31847 ft 474 kts 14°
2026-04-26 21:12 41.25841 -9.15363 30725 ft 476 kts 14°
2026-04-26 21:13 41.29037 -9.14192 29550 ft 477 kts 14°
2026-04-26 21:13 41.32219 -9.13025 28734 ft 471 kts 14°
2026-04-26 21:13 41.35348 -9.11876 28253 ft 457 kts 14°
2026-04-26 21:13 41.38361 -9.10769 27905 ft 442 kts 13°
2026-04-26 21:14 41.41297 -9.09689 27377 ft 433 kts 13°
2026-04-26 21:14 41.44173 -9.08632 26853 ft 425 kts 13°
2026-04-26 21:14 41.47003 -9.07592 26353 ft 417 kts 13°
2026-04-26 21:14 41.49778 -9.06571 25848 ft 410 kts 13°
2026-04-26 21:15 41.52503 -9.05567 25356 ft 403 kts 13°
2026-04-26 21:15 41.55183 -9.04579 24873 ft 397 kts 14°
2026-04-26 21:15 41.56975 -9.03918 24554 ft 393 kts 14°
2026-04-26 21:15 41.60445 -9.02636 23919 ft 390 kts 14°
2026-04-26 21:16 41.63059 -9.01671 23391 ft 389 kts 14°
2026-04-26 21:16 41.65258 -9.00858 22990 ft 384 kts 14°
2026-04-26 21:17 41.74976 -8.97260 21187 ft 375 kts 14°
2026-04-26 21:17 41.77482 -8.96329 20725 ft 373 kts 14°
2026-04-26 21:17 41.79971 -8.95405 20252 ft 369 kts 14°
2026-04-26 21:18 41.82442 -8.94486 19789 ft 367 kts 14°
2026-04-26 21:18 41.84895 -8.93574 19326 ft 365 kts 14°
2026-04-26 21:18 41.87304 -8.92562 18832 ft 363 kts 20°
2026-04-26 21:18 41.89591 -8.91150 18410 ft 362 kts 26°
2026-04-26 21:19 41.91832 -8.89628 17894 ft 359 kts 25°
2026-04-26 21:19 41.94046 -8.88146 17447 ft 354 kts 25°
2026-04-26 21:19 41.96252 -8.86675 17001 ft 354 kts 25°
2026-04-26 21:19 41.98450 -8.85206 16548 ft 349 kts 26°
2026-04-26 21:20 42.00619 -8.83754 16106 ft 349 kts 26°
2026-04-26 21:20 42.02778 -8.82306 15653 ft 345 kts 26°
2026-04-26 21:20 42.04913 -8.80873 15225 ft 341 kts 26°
2026-04-26 21:20 42.07038 -8.79446 14789 ft 340 kts 26°
2026-04-26 21:21 42.09144 -8.78030 14358 ft 336 kts 26°
2026-04-26 21:21 42.11224 -8.76630 13932 ft 333 kts 26°
2026-04-26 21:21 42.13295 -8.75234 13476 ft 332 kts 26°
2026-04-26 21:21 42.15350 -8.73848 13062 ft 329 kts 26°
2026-04-26 21:22 42.17393 -8.72468 12630 ft 328 kts 26°
2026-04-26 21:22 42.19420 -8.71099 12228 ft 325 kts 26°
2026-04-26 21:22 42.21442 -8.69732 11813 ft 323 kts 26°
2026-04-26 21:23 42.25398 -8.67057 11019 ft 320 kts 26°
2026-04-26 21:23 42.27356 -8.65731 10613 ft 318 kts 26°
2026-04-26 21:23 42.29320 -8.64400 10462 ft 306 kts 26°
2026-04-26 21:23 42.31183 -8.63136 10292 ft 294 kts 26°
2026-04-26 21:24 42.32996 -8.61905 10155 ft 293 kts 26°
2026-04-26 21:24 42.34824 -8.60662 10058 ft 295 kts 26°
2026-04-26 21:24 42.36656 -8.59417 9789 ft 294 kts 26°
2026-04-26 21:24 42.38475 -8.58180 9438 ft 290 kts 26°
2026-04-26 21:25 42.40263 -8.56962 9103 ft 285 kts 26°
2026-04-26 21:25 42.42017 -8.55768 8768 ft 280 kts 26°
2026-04-26 21:25 42.43740 -8.54595 8434 ft 275 kts 26°
2026-04-26 21:25 42.45431 -8.53442 8112 ft 270 kts 26°
2026-04-26 21:26 42.47092 -8.52309 7796 ft 265 kts 26°
2026-04-26 21:26 42.48732 -8.51190 7481 ft 261 kts 26°
2026-04-26 21:26 42.50339 -8.50093 7177 ft 257 kts 26°
2026-04-26 21:26 42.51931 -8.49006 6880 ft 255 kts 26°
2026-04-26 21:27 42.53521 -8.47919 6517 ft 258 kts 26°
2026-04-26 21:27 42.55148 -8.46808 5973 ft 265 kts 26°
2026-04-26 21:27 42.56790 -8.45685 5702 ft 268 kts 27°
2026-04-26 21:27 42.58533 -8.44492 5415 ft 288 kts 27°
2026-04-26 21:28 42.60312 -8.43274 5355 ft 283 kts 27°
2026-04-26 21:28 42.62034 -8.42093 5194 ft 274 kts 27°
2026-04-26 21:28 42.63178 -8.41309 5024 ft 270 kts 27°
2026-04-26 21:28 42.64779 -8.40210 4969 ft 272 kts 27°
2026-04-26 21:29 42.66452 -8.39061 4859 ft 271 kts 27°
2026-04-26 21:29 42.68129 -8.37909 4753 ft 259 kts 27°
2026-04-26 21:29 42.69213 -8.37164 4682 ft 251 kts 27°
2026-04-26 21:29 42.70768 -8.36224 4585 ft 239 kts 15°
2026-04-26 21:30 42.72375 -8.35986 4438 ft 229 kts 358°
2026-04-26 21:30 42.73829 -8.36238 4141 ft 224 kts 349°
2026-04-26 21:30 42.75324 -8.36701 3852 ft 217 kts 347°
2026-04-26 21:30 42.76278 -8.37026 3703 ft 207 kts 347°
2026-04-26 21:31 42.78079 -8.37628 3338 ft 191 kts 348°
2026-04-26 21:31 42.79334 -8.38049 3078 ft 180 kts 348°
2026-04-26 21:31 42.80516 -8.38446 2860 ft 168 kts 348°
2026-04-26 21:31 42.81609 -8.38813 2634 ft 156 kts 349°
2026-04-26 21:32 42.82629 -8.39154 2437 ft 147 kts 349°
2026-04-26 21:32 42.83593 -8.39478 2245 ft 138 kts 348°
2026-04-26 21:32 42.84523 -8.39796 2039 ft 139 kts 348°
2026-04-26 21:32 42.85372 -8.40130 1842 ft 136 kts 344°
2026-04-26 21:33 42.86286 -8.40408 1753 ft 137 kts 351°
2026-04-26 21:33 42.87203 -8.40686 1463 ft 132 kts 348°
2026-04-26 21:33 42.88075 -8.40991 1288 ft 134 kts 348°
2026-04-26 21:33 42.88979 -8.41294 1208 ft 126 kts 346°
2026-04-26 21:34 42.89652 -8.41520 1192 ft 56 kts 346°
2026-04-26 21:34 42.89766 -8.41668 1191 ft 20 kts 261°
2026-04-26 21:34 42.89760 -8.41704 1193 ft 4 kts 257°
2026-04-26 21:34 42.89748 -8.41767 1196 ft 9 kts 257°
2026-04-26 21:35 42.89732 -8.41875 1202 ft 7 kts 256°
2026-04-26 21:35 42.89729 -8.41893 1204 ft 1 kts 256°
2026-04-26 21:35 42.89729 -8.41895 1204 ft 0 kts 256°
2026-04-26 21:36 27.92918 -15.39216 51 ft 0 kts 291°